Location: Kuffner-Sternwarte
(48.2130°N, 16.2960°E)
Time: 08:13:53
(UTC+02:00)

COROT - Pass Details

Date: 15 January 2018
Orbit: 602 x 887 km, 90.0° (Epoch: 16 July)

Event Time Altitude Azimuth Distance (km) Brightness Sun altitude
Rises 04:53:29 0° 5° (N) 2,870 9.0 -27.2°
Reaches altitude 10° 04:55:43 10° 10° (N) 1,958 8.2 -26.9°
Maximum altitude 04:59:53 54° 89° (E) 739 6.2 -26.2°
Drops below altitude 10° 05:04:08 10° 167° (SSE) 1,988 8.3 -25.5°
Sets 05:06:24 0° 172° (S) 2,918 9.2 -25.1°
